Location: College Park
(38.9810°N, 76.9370°W)
Time: 14:13:54
(UTC-04:00)

N. Korean satellite - Pass Details

Date: 11 January 2018
Orbit: 458 x 513 km, 97.2° (Epoch: 23 April)

Event Time Altitude Azimuth Distance (km) Brightness Sun altitude
Rises 17:46:26 0° 156° (SSE) 2,598 10.2 -8.0°
Reaches altitude 10° 17:48:33 10° 151° (SSE) 1,710 9.3 -8.4°
Maximum altitude 17:52:08 51° 75° (ENE) 634 6.7 -9.1°
Drops below altitude 10° 17:55:41 10° 359° (N) 1,694 9.1 -9.7°
Sets 17:57:46 0° 354° (N) 2,570 10.1 -10.1°
